www.pogodaiklimat.ru

Погода и климат >> Архив погоды >> Молдова >> Кишинев


АРХИВ ПОГОДЫ в Кишиневе

Время (UTC), дата Ветер
(напр.,м/с)
 
Видим.   Явления Облачность Т
(С)
Тd
(С)
f
(%)
Тe
(С)
Тes
(С)
Комфортность P
(гПа)
Po
(гПа)
Тmin
(С)
Tmax
(С)
R
(мм)
R24
(мм)
S
(см)
06 13.02 СЗ 4 20 км 10/6 600 м
[Cu med, cong Ac trans]
+0.1 -2.1 85 -5 -5 по сезону 1025.2 1003.7 -0.9 0.0 2
09 13.02 СЗ 7 20 км 8/5 600 м
[Cu med, cong Ac trans]
+1.9 -4.6 62 -4 -4 по сезону 1027.2 1005.8
12 13.02 СЗ 5
{12}
20 км 9/6 600 м
[Cu med, cong Ac trans]
+1.2 -5.5 61 -4 -4 по сезону 1028.4 1006.9
15 13.02 СЗ 3 20 км 8/0
[Ac lent Cs]
+0.4 -5.0 67 -4 -4 по сезону 1028.4 1006.9
18 13.02 З 1 20 км 10/0
[Ac trans Ci fib]
-0.8 -5.0 73 -3 -3 по сезону 1028.1 1006.5 +2.1
21 13.02 З 2 20 км 10/10 600 м
[Cb calv]
-0.5 -4.4 75 -4 -4 по сезону 1028.3 1006.7
00 14.02 З 3 20 км 10/10 600 м
[Cb calv]
-0.2 -2.7 83 -5 -5 по сезону 1027.1 1005.6
03 14.02 З 3 20 км 10/10 600 м
[Cb calv]
+1.0 -2.8 76 -3 -3 по сезону 1026.1 1004.7
06 14.02 СЗ 5 20 км слаб. дождь 10/8 600 м
[Sc Ac trans]
+1.7 -0.7 84 -4 -4 по сезону 1025.0 1003.7 -1.1 <0.5
09 14.02 СЗ 5 20 км {дождь} 10/10 600 м
[Cu med, cong]
+2.8 +0.4 84 -3 -3 по сезону 1024.9 1003.7
12 14.02 С 2 10 км слаб. ливневой дождь 10/10 600 м
[Cb calv]
+3.4 +0.8 83 +1 +1 по сезону 1024.7 1003.5
15 14.02 С 4 10 км {ливн. осадки} 9/8 600 м
[Cb calv Ac As]
+3.5 -0.5 75 -1 -1 по сезону 1025.4 1004.2
18 14.02 С 3 20 км {ливн. осадки} 10/10 600 м
[Cu med, cong]
+2.7 -1.1 76 -1 -1 по сезону 1027.0 1005.7 +3.9 0.0
21 14.02 С 2 20 км 10/10 600 м
[Sc]
+2.0 -0.7 82 -1 -1 по сезону 1027.8 1006.4
00 15.02 С 2 20 км 10/10 600 м
[Sc]
+1.6 -0.3 87 -2 -2 по сезону 1029.0 1007.6
03 15.02 С 1 4000 м в посл. час дождь 10/10 600 м
[Sc]
+1.1 +0.5 96 -1 -1 тепло 1029.5 1008.0
06 15.02 СВ 2 2000 м дымка {дождь} 10/10 600 м
[Sc]
+1.1 +0.5 96 -3 -3 по сезону 1031.4 1009.9 +1.0 0.5
09 15.02 СВ 1 4000 м дымка 10/10 600 м
[Cb calv]
+1.6 +0.3 91 -0 -0 по сезону 1032.7 1011.2
12 15.02 СЗ 4 20 км 10/10 600 м
[Cb calv]
+3.0 -0.1 80 -2 -2 по сезону 1031.6 1010.2
15 15.02 СЗ 2 20 км 10/10 600 м
[Cu Sc]
+2.7 -1.1 76 -0 -0 по сезону 1030.8 1009.4
18 15.02 СЗ 2 20 км 10/10 600 м
[Cb calv]
+2.6 -1.4 75 -0 -0 по сезону 1030.6 1009.2 +3.3
21 15.02 З 1 20 км 10/5 600 м
[Cb calv Ac trans]
+1.9 -2.4 73 0 0 тепло 1029.8 1008.4
00 16.02 СЗ 2 20 км 9/4 600 м
[Cb calv Ac trans]
+1.4 -1.5 81 -2 -2 по сезону 1029.5 1008.0
03 16.02 СЗ 4 20 км 10/10 600 м
[Cb calv]
+1.2 -1.5 82 -4 -4 по сезону 1028.4 1007.0
06 16.02 СЗ 3 20 км 10/8 600 м
[Sc Ac trans]
+2.3 -1.1 78 -2 -2 по сезону 1028.3 1006.9 +0.6
09 16.02 СЗ 3 20 км 10/9 600 м
[Sc Ac trans]
+4.1 +0.1 75 +1 +1 тепло 1028.0 1006.8
12 16.02 СЗ 5 10 км 10/9 600 м
[Sc Ac trans]
+6.0 +1.1 71 +2 +2 по сезону 1026.8 1005.8
15 16.02 СЗ 4 20 км 10/0
[Ac trans Ci fib]
+6.4 +1.7 72 +3 +3 тепло 1026.2 1005.2
18 16.02 З 2 20 км 8/0
[Ac trans Ci fib]
+4.4 +1.6 82 +2 +2 тепло 1026.3 1005.2 +6.9
21 16.02 СЗ 5 20 км 5/0
[Ci fib]
+6.2 +2.7 78 +2 +2 тепло 1025.9 1004.9
00 17.02 СЗ 3 20 км ясно +5.3 +2.5 82 +2 +2 тепло 1025.3 1004.2
03 17.02 З 3 20 км 3/0
[Ac trans]
+3.7 +1.3 84 -0 -0 тепло 1024.2 1003.0
06 17.02 З 1 4000 м дымка 3/0
[Ac trans Ci]
+3.8 +1.2 83 +2 +3 тепло 1024.5 1003.3 +2.9
09 17.02 СЗ 4 4000 м дымка 4/0
[Ac trans Ci fib]
+11.2 +0.3 47 +9 +12 тепло 1023.5 1002.9
12 17.02 З 5 20 км 3/0
[Ac trans]
+14.5 -2.9 30 +13 +15 тепло 1021.1 1000.8
15 17.02 З 5 20 км 3/0
[Ci fib]
+13.4 -1.7 35 +12 +12 тепло 1019.6 999.2
18 17.02 СЗ 6 20 км 3/0
[Ci fib]
+10.9 -1.5 42 +8 +8 тепло 1020.1 999.5 +14.9
21 17.02 СЗ 6 20 км 3/0
[Ci fib]
+8.8 -0.5 52 +5 +5 тепло 1020.9 1000.2
00 18.02 СЗ 4 20 км 5/0
[Ac trans Ci fib]
+6.9 -0.3 60 +4 +4 тепло 1021.6 1000.7
03 18.02 СЗ 3 20 км 6/0
[Ac trans Ci fib]
+4.4 0.0 73 +1 +1 тепло 1022.3 1001.2
06 18.02 С 5 10 км 8/3 600 м
[Sc Ac trans]
+3.8 0.0 76 -1 -1 тепло 1023.5 1002.4 +3.6
09 18.02 СЗ 4 20 км 9/4 600 м
[Cu med, cong Ac trans]
+6.7 +0.6 65 +3 +4 тепло 1024.2 1003.3
12 18.02 С 3 20 км 10/8 600 м
[Cb calv Ac trans]
+8.1 -0.1 56 +6 +6 тепло 1023.8 1003.0
15 18.02 СЗ 2 20 км 10/4 600 м
[Sc Ac lent]
+7.6 -0.6 56 +6 +6 тепло 1023.4 1002.5
18 18.02 С 1 20 км 10/10 600 м
[Sc]
+6.9 -0.1 61 +6 +6 тепло 1023.9 1003.0 +9.1
21 18.02 штиль 0 20 км 10/6 600 м
[Sc Ac trans]
+6.4 +0.1 64 +6 +6 тепло 1024.5 1003.5
00 19.02 В 3 20 км 10/8 600 м
[Sc Ac trans]
+3.5 -2.2 66 0 0 тепло 1025.3 1004.1
03 19.02 В 3 20 км 10/3 600 м
[Sc Ac trans]
+2.1 -4.0 64 -2 -2 по сезону 1024.8 1003.5
06 19.02 В 3 20 км 4/0
[Ac trans Ci fib]
+0.3 -4.3 71 -4 -4 по сезону 1025.4 1003.9 +0.2
09 19.02 Ю 3 20 км 8/0
[Ac trans Ci fib]
+4.8 -2.3 60 +2 +5 тепло 1024.8 1003.7
12 19.02 Ю 4 20 км 9/6 600 м
[Cu hum Ci fib]
+9.2 -0.7 50 +7 +8 тепло 1022.4 1001.7
15 19.02 Ю 6 20 км 8/3 600 м
[Cu hum Ac lent Ci fib]
+8.2 -0.1 56 +5 +5 тепло 1020.8 1000.0
18 19.02 ЮВ 5 20 км 3/0
[Cs]
+3.2 -0.4 77 -2 -2 по сезону 1020.5 999.4 +10.1
21 19.02 Ю 3 10 км ясно +1.7 +0.4 91 -3 -3 по сезону 1019.5 998.3
00 20.02 ЮЗ 3 4000 м дымка 8/0
[Ac trans Cs]
+1.2 +0.6 96 -3 -3 по сезону 1017.7 996.5
03 20.02 ЮЗ 5 1000 м дымка 10/10 600 м
[Sc]
+2.2 +1.5 95 -4 -4 по сезону 1016.1 995.0

 

Местоположение метеостанции Кишинев (Молдова): широта 47.02 долгота 28.98 высота над уровнем моря 173 м.

В архиве по умолчанию представлена погода в Кишиневе за последнюю неделю. Архивные данные за месяц целиком и за предыдущие месяцы, начиная с января 2011 года, Вы можете получить, выбрав интересующий диапазон дат из раскрывающегося списка и нажав кнопку "Ввод!".


*Определитесь, кто Вы:
робот инопланетянин человек

Внимание! Время в таблицах - всемирное. Для получения местного времени необходимо прибавить поправку, которая равна 2 ч.

Смотрите также архив погоды в соседних городах и на ближайших метеорологических станциях:

Погода в Балцате (Молдова) (5 км)
Погода в Дубоссарах (Молдова) (29 км)
Погода в Кодрах (Молдова) (46 км)
Погода в Тирасполе (Молдова) (49 км)
Погода в Бравичах (Молдова) (57 км)
Погода в Штефан Водэ (Молдова) (67 км)
Погода в Корнестах (Молдова) (76 км)
Погода в Затишье (Одесская область, Украина) (76 км)
Погода в Леове (Молдова) (80 км)
Погода в Заставе (Одесская область, Украина) (81 км)

Пояснения к столбцам:

Ветер - указаны скорость ветра в м/с - средняя за 10 мин, порывы в срок и между сроками (в фигурных скобках) и направление, откуда дует ветер: С - северный, СВ - северо-восточный, В - восточный, ЮВ - юго-восточный, Ю - южный, ЮЗ - юго-западный, З - западный, СЗ - северо-западный.
Видимость - горизонтальная дальность видимости в метрах или километрах. При видимости от 1 до 10 км при отсутствии осадков обычно наблюдается дымка, при ухудшении видимости до 1 км и менее - туман. В сухую погоду видимость может ухудшаться дымом, пылью или мглою.
Явления - указаны атмосферные явления, наблюдавшиеся в срок или в последний час перед сроком; фигурными скобками обозначены явления, наблюдавшиеся между сроками (за 1-3 часа до срока); квадратными скобками обозначены град или гололедные отложения с указанием их диаметра в мм.
Облачность - указаны через наклонную черту общая и нижняя облачность в баллах и высота нижней границы облаков в метрах; квадратными скобками обозначены формы облаков: Ci - перистые, Cs - перисто-слоистые, Cc - перисто-кучевые, Ac - высококучевые, As - высокослоистые, Sc - слоисто-кучевые, Ns - слоисто-дождевые, Cu - кучевые, Cb - кучево-дождевые. Подробнее классификацию облаков см. в Атласе облаков (PDF).
T - Температура воздуха - температура, измеренная на высоте 2 м над землей.
Td - Температура точки росы - температура, при понижении до которой содержащийся в воздухе водяной пар достигнет насыщения.
f - Относительная влажность воздуха - влажноcть воздуха, измеренная на высоте 2 м над землей.
Te - Эффективная температура - температура, которую ощущает одетый по сезону человек в тени. Характеристика душности погоды. При расчете учитывается влияние влажности воздуха и скорости ветра на теплоощущения человека.
Tes - Эффективная температура на солнце - температура, которую ощущает человек, с поправкой на солнечный нагрев. Характеристика знойности погоды. Зависит от высоты солнца над горизонтом, облачности и скорости ветра. Ночью, в пасмурную погоду, а также при ветре 12 м/с и более поправка равна нулю.
P - Атмосферное давление - приведенное к уровню моря атмосферное давление.
Po - Атмосферное давление - измеренное на уровне метеостанции атмосферное давление.
Tmin - Минимальная температура - минимум температуры воздуха на высоте 2 м над землей.
Tmax - Максимальная температура - максимум температуры воздуха на высоте 2 м над землей.
R - Количество осадков - Количество выпавших осадков за период времени, мм. При наведении курсора мыши на число - период времени, за который выпало указанное количество осадков.
R24 - Количество осадков - Количество выпавших осадков за 24 часа, мм.
S - Снежный покров - Высота снежного покрова, см. При наведении курсора мыши на число - состояние снежного покрова и степень покрытия местности в баллах.